Regional Weather Roundup
Issued by NWS

Home | Current Version | Previous Version | Graphics & Text | Print | Product List | Glossary On
Versions: 1 2 3 4 5 6 7 8 9 10 11 12 13 14 15 16 17 18 19 20 21 22 23 24 25 26 27
000
ASUS45 KBOU 170206
RWRCO

WEATHER ROUNDUP FOR COLORADO
NATIONAL WEATHER SERVICE DENVER/BOULDER CO
800 PM MDT WED APR 16 2014

NOTE: "FAIR" INDICATES FEW OR NO CLOUDS BELOW 12000 FEET WITH NO
SIGNIFICANT WEATHER AND/OR OBSTRUCTIONS TO VISIBILITY.

COZ001>005-013-030-031-170300-
...NORTHWEST COLORADO...

CITY           SKY/WX    TMP DP  RH WIND       PRES   REMARKS
CRAIG          PTCLDY    39  18  42 S6        29.97R
HAYDEN         PTCLDY    45  10  24 SW3       30.00R
MEEKER         CLEAR     44  22  41 N10       29.96R
MOUNT WERNER   NOT AVBL
STEAMBOAT SPGS PTCLDY    42   9  26 CALM      29.98R
WALDEN         PTCLDY    34  14  44 W6        30.00S WCI  29
$$

COZ006>008-011-170300-
...WEST CENTRAL VALLEYS...

CITY           SKY/WX    TMP DP  RH WIND       PRES   REMARKS
GRAND JUNCTION PTCLDY    53  19  26 CALM      29.91R
MONTROSE       MOCLDY    52  22  30 W3        29.97R
EAGLE          MOCLDY    48  10  21 E3        29.96R
RIFLE          PTCLDY    50  17  27 W3        29.92R
DELTA          MOCLDY    57  13  17 W7        29.93R
NUCLA            N/A     50  21  32 NW5       30.00R
$$

COZ017>023-064>068-170300-
...SOUTHWEST COLORADO...

CITY           SKY/WX    TMP DP  RH WIND       PRES   REMARKS
DURANGO        CLOUDY    50  22  33 W18G26    29.93R
CORTEZ         CLOUDY    51  25  36 N7        29.94R
PAGOSA SPRINGS CLOUDY    49  17  27 SW10      29.95R
TELLURIDE      CLOUDY    36  27  69 CALM      30.04R
WOLF CREEK PAS LGT SNOW  23  23 100 SW17G28   30.05R VSB 1   WCI   9
$$

COZ009-010-012-014-032>034-037-058>063-170300-
...CENTRAL COLORADO...

CITY           SKY/WX    TMP DP  RH WIND       PRES   REMARKS
ASPEN          CLOUDY    41  25  53 SE10      29.98R
BUENA VISTA    LGT SNOW  34  32  93 E7        30.02R WCI  28
COPPER MTN     CLOUDY    28  10  47 W21       30.06R WCI  15
BERTHOUD PASS  CLOUDY    18   7  62 CALM      30.08S HAZE
COTTONWOOD PAS LGT SNOW  34  30  86 CALM      30.04R
GUNNISON       CLOUDY    43  18  36 N8        30.01R
KREMMLING      CLOUDY    41   5  22 N6        30.00R
LEADVILLE      CLOUDY    30  15  53 NW8       30.02R WCI  22
MONARCH PASS   HVY SNOW  25  23  93 NE15      30.15S VSB<1/4 WCI  12
SALIDA         CLOUDY    36  34  94 E14G21    30.09R
SUNLIGHT       MOCLDY    32  16  51 CALM      30.07R
WILKERSON PASS SNOW      21  19  93 E8        30.09R VSB 1/2 WCI  12
$$

COZ069>075-170300-
...SAN LUIS VALLEY/SANGRE DE CRISTO MOUNTAINS...

CITY           SKY/WX    TMP DP  RH WIND       PRES   REMARKS
ALAMOSA        CLOUDY    39  35  86 E15       29.96R
LA VETA PASS   HVY SNOW  27  23  86 MISG      30.03R VSB 1/4
SAGUACHE       CLOUDY    45  19  36 NW12      29.97R
$$

COZ035-036-038>040-170300-
...NORTHERN COLORADO FRONT RANGE...

CITY           SKY/WX    TMP DP  RH WIND       PRES   REMARKS
DENVER INTL AP CLOUDY    46  23  40 NE5       30.04R
DMNS CITY PARK   N/A     47  20  34 E3        30.04R
AURORA         CLOUDY    45  21  39 E7        30.05R
FRONT RANGE AP NOT AVBL
ERIE MUNI ARPT CLOUDY    47  24  39 N6        30.05R
BOULDER MUN AP CLOUDY    45  28  53 NW5       30.04R
CENTENNIAL     CLOUDY    44  21  40 SE10      30.04R
BROOMFIELD     CLOUDY    46  25  42 VRB5      30.05
FORT COLLINS   CLOUDY    45  27  49 N7        30.06R
LONGMONT       CLOUDY    48  28  45 NW3       30.06R
$$

COZ041-046-047-076>085-087-088-170300-
...PIKES PEAK/PALMER DIVIDE AND SOUTHERN FOOTHILLS...

CITY           SKY/WX    TMP DP  RH WIND       PRES   REMARKS
COLO. SPRINGS  LGT SNOW  35  33  92 NE5       30.09R FOG     WCI  31
A. F. ACADEMY  LGT SNOW  33  32  99 N2        30.08R FOG
ELLICOTT       NOT AVBL
FALCON         LGT SNOW  32  32  99 NE6       30.08R WCI  27
FORT CARSON    NOT AVBL
LIMON          CLOUDY    42  29  59 E9        30.05R
MONUMENT HILL  CLOUDY    32  30  93 S10       30.06R WCI  24
TRINIDAD       LGT RAIN  40  36  86 E10       30.04R
$$

COZ042>045-048>051-090-091-170300-
...NORTHEAST COLORADO...

CITY           SKY/WX    TMP DP  RH WIND       PRES   REMARKS
GREELEY ARPT   CLOUDY    46  25  42 N10       30.05R
AKRON          CLOUDY    41  30  65 E9        30.04R
BURLINGTON     CLOUDY    45  29  53 NE9       30.05R
WRAY           MOCLDY    46  33  61 NE8       30.05R
STERLING       CLOUDY    48  32  53 E7        30.03R
HOLYOKE        MOCLDY    43  32  65 E8        30.05R
FORT MORGAN    CLOUDY    47  25  41 E14       30.04R
$$

COZ086-089-092>099-170300-
...SOUTHEAST COLORADO...

CITY           SKY/WX    TMP DP  RH WIND       PRES   REMARKS
PUEBLO         LGT RAIN  43  37  79 SE10      30.07R
LA JUNTA       CLOUDY    51  26  37 NE16      30.02R
LAMAR          CLOUDY    52  26  36 NE14      30.00R
SPRINGFIELD      N/A     49  24  37 NE15      29.99R
$$



USA.gov is the U.S. government's official web portal to all federal, state and local government web resources and services.